This is the latest recevied weather packets stored in our database for station/object KD9CCP. If no packets are shown the sender has not sent any weather packets the latest 10 day(s).
| Time | Temp. | Humidity | Pressure | Rain* | Wind** | Luminosity | Snow |
|---|---|---|---|---|---|---|---|
| 1777776839 | 7.22° C | 65% | 1012.1 hPa | 0 mm | - | 0 W/m² | - |
| 1777776536 | 7.78° C | 67% | 1012.4 hPa | 0 mm | - | 0 W/m² | - |
| 1777776233 | 7.78° C | 65% | 1012.5 hPa | 0 mm | - | 0 W/m² | - |
| 1777775930 | 8.33° C | 63% | 1012.7 hPa | 0 mm | - | 0 W/m² | - |
| 1777775627 | 8.33° C | 59% | 1012.5 hPa | 0 mm | - | 0 W/m² | - |
| 1777775323 | 8.33° C | 67% | 1012.5 hPa | 0 mm | - | 0 W/m² | - |
| 1777775018 | 8.33° C | 66% | 1012.4 hPa | 0 mm | - | 0 W/m² | - |
| 1777774715 | 8.33° C | 65% | 1012.8 hPa | 0 mm | - | 0 W/m² | - |
| 1777774411 | 8.89° C | 65% | 1012.5 hPa | 0 mm | - | 0 W/m² | - |
| 1777774109 | 8.89° C | 65% | 1012.8 hPa | 0 mm | - | 0 W/m² | - |
| 1777773807 | 8.89° C | 63% | 1012.6 hPa | 0 mm | - | 0 W/m² | - |
| 1777773503 | 8.89° C | 61% | 1012.6 hPa | 0 mm | - | 0 W/m² | - |
| 1777773200 | 8.89° C | 64% | 1012.7 hPa | 0 mm | - | 0 W/m² | - |
| 1777772895 | 8.89° C | 60% | 1012.6 hPa | 0 mm | - | 0 W/m² | - |
| 1777772593 | 9.44° C | 62% | 1012.6 hPa | 0 mm | - | 0 W/m² | - |
| 1777772290 | 9.44° C | 60% | 1012.5 hPa | 0 mm | - | 0 W/m² | - |
| 1777771988 | 9.44° C | 61% | 1012.7 hPa | 0 mm | - | 0 W/m² | - |
| 1777771685 | 9.44° C | 59% | 1012.5 hPa | 0 mm | - | 0 W/m² | - |
| 1777771382 | 10° C | 57% | 1012.6 hPa | 0 mm | - | 0 W/m² | - |
| 1777771079 | 10° C | 52% | 1012.6 hPa | 0 mm | - | 0 W/m² | - |
| 1777770775 | 10° C | 49% | 1012.8 hPa | 0 mm | - | 0 W/m² | - |
| 1777770472 | 10.56° C | 46% | 1012.5 hPa | 0 mm | - | 0 W/m² | - |
| 1777770169 | 10.56° C | 47% | 1012.7 hPa | 0 mm | - | 0 W/m² | - |
| 1777769866 | 10.56° C | 47% | 1012.6 hPa | 0 mm | - | 0 W/m² | - |
| 1777769564 | 11.11° C | 43% | 1012.6 hPa | 0 mm | - | 0 W/m² | - |
* Rain latest hour (hover to see other rain measurements)
** Current wind speed in m/s (hover to see current wind gust speed)